Watsonville, CA

8:23 AM PDT on May 29, 2017 (GMT -0700)
Watsonville Municipal

Weather History for KWVI - July, 2014

Change the Weather History Date:

Wednesday, July 16, 2014

  Actual Average Record
Temperature  
Mean Temperature 67 °F 63 °F  
Max Temperature 73 °F 73 °F 81 °F (2004)
Min Temperature 60 °F 53 °F 50 °F (2006)
Degree Days  
Heating Degree Days 0    
Month to date heating degree days 15  
Since 1 June heating degree days 108  
Since 1 July heating degree days 15  
Cooling Degree Days 2    
Month to date cooling degree days 10  
Year to date cooling degree days 67  
Since 1 June cooling degree days 23  
Growing Degree Days 18 (Base 50)    
Moisture  
Dew Point 59 °F    
Average Humidity 75    
Maximum Humidity 93    
Minimum Humidity 57    
Precipitation  
Precipitation 0.01 in - 0.06 in (1990)
Month to date precipitation 0.06  
Year to date precipitation 8.24  
Since 1 July precipitation 0.06  
Sea Level Pressure  
Sea Level Pressure 30.03 in    
Wind  
Wind Speed 7 mph (WSW)    
Max Wind Speed 15 mph    
Max Gust Speed 19 mph    
Visibility 8 miles    
Events Rain    
T = Trace of Precipitation, MM = Missing Value Source: NWS Daily Summary

Daily Weather History Graph

Daily Weather History Graph

Search for Another Location

Airport or City:

Trip Planner

Search our weather history database for the weather conditions in past years. The results will help you decide how hot, cold, wet, or windy it might be!

Date:

Astronomy

Jul. 16, 2014 Rise Set
Actual Time 6:00 AM PDT 8:25 PM PDT
Civil Twilight 5:30 AM PDT 8:55 PM PDT
Nautical Twilight 4:53 AM PDT 9:32 PM PDT
Astronomical Twilight 4:12 AM PDT 10:13 PM PDT
Moon 11:22 PM PDT (7/16) 11:01 AM PDT (7/16)
Length of Visible Light 15h 25m
Length of Day
14h 25m
Waning Gibbous, 75% of the Moon is Illuminated
Jul 16
Waning Gibbous
Jul 18
Last Quarter
Jul 26
New
Aug 3
First Quarter
Aug 10
Full

Hourly Weather History & Observations

Time (PDT) Temp. Dew Point Humidity Pressure Visibility Wind Dir Wind Speed Gust Speed Precip Events Conditions
12:27 AM 64.0 °F 60.1 °F 87% 30.01 in 10.0 mi Calm Calm - N/A   Mostly Cloudy
12:36 AM 64.0 °F 59.0 °F 84% 30.01 in 10.0 mi Calm Calm - N/A   Scattered Clouds
12:53 AM 64.0 °F 60.1 °F 87% 30.00 in 10.0 mi SW 4.6 mph - N/A   Mostly Cloudy
1:10 AM 64.0 °F 60.1 °F 87% 30.00 in 10.0 mi SW 6.9 mph - N/A   Overcast
1:53 AM 64.0 °F 60.1 °F 87% 30.00 in 10.0 mi WSW 5.8 mph - N/A   Overcast
2:21 AM 64.0 °F 60.1 °F 87% 30.00 in 9.0 mi WSW 5.8 mph - N/A   Overcast
2:53 AM 64.0 °F 60.1 °F 87% 30.00 in 4.0 mi West 5.8 mph - N/A   Overcast
3:24 AM 64.0 °F 60.1 °F 87% 30.01 in 4.0 mi WSW 4.6 mph - N/A   Overcast
3:53 AM 63.0 °F 60.1 °F 90% 30.01 in 5.0 mi WSW 5.8 mph - N/A   Overcast
4:16 AM 63.0 °F 60.1 °F 90% 30.02 in 5.0 mi WSW 5.8 mph - N/A   Overcast
4:53 AM 63.0 °F 60.1 °F 90% 30.02 in 5.0 mi West 3.5 mph - N/A   Overcast
5:53 AM 63.0 °F 61.0 °F 93% 30.03 in 6.0 mi WNW 4.6 mph - N/A   Overcast
6:53 AM 63.0 °F 61.0 °F 93% 30.03 in 7.0 mi West 5.8 mph - N/A   Overcast
7:53 AM 64.0 °F 61.0 °F 90% 30.04 in 4.0 mi West 4.6 mph - N/A   Overcast
8:33 AM 64.9 °F 61.0 °F 87% 30.06 in 5.0 mi Variable 3.5 mph - N/A   Overcast
8:53 AM 64.0 °F 61.0 °F 90% 30.06 in 5.0 mi West 6.9 mph - N/A   Overcast
9:31 AM 64.9 °F 62.1 °F 90% 30.06 in 4.0 mi West 8.1 mph - 0.00 in Rain Light Rain
9:42 AM 66.9 °F 63.0 °F 87% 30.06 in 10.0 mi WSW 8.1 mph - 0.01 in   Overcast
9:53 AM 66.0 °F 62.1 °F 87% 30.06 in 8.0 mi WSW 6.9 mph - 0.01 in   Overcast
10:07 AM 64.9 °F 60.1 °F 84% 30.07 in 10.0 mi West 8.1 mph - N/A   Overcast
10:18 AM 66.0 °F 61.0 °F 84% 30.07 in 8.0 mi WSW 8.1 mph - N/A   Overcast
10:33 AM 66.0 °F 62.1 °F 87% 30.07 in 6.0 mi WSW 8.1 mph - N/A   Overcast
10:42 AM 66.0 °F 61.0 °F 84% 30.07 in 9.0 mi WSW 8.1 mph - N/A   Overcast
10:53 AM 66.9 °F 60.1 °F 79% 30.07 in 10.0 mi WSW 8.1 mph - N/A   Overcast
11:24 AM 69.1 °F 59.0 °F 70% 30.07 in 10.0 mi West 6.9 mph - N/A   Overcast
11:53 AM 70.0 °F 59.0 °F 68% 30.07 in 10.0 mi SSW 8.1 mph - N/A   Overcast
12:53 PM 70.0 °F 57.9 °F 65% 30.06 in 10.0 mi SW 9.2 mph - N/A   Overcast
1:40 PM 72.0 °F 59.0 °F 64% 30.05 in 10.0 mi SSW 11.5 mph - N/A   Overcast
1:53 PM 73.0 °F 57.9 °F 59% 30.05 in 10.0 mi WSW 12.7 mph - N/A   Overcast
2:02 PM 72.0 °F 59.0 °F 64% 30.05 in 10.0 mi SW 12.7 mph - N/A   Overcast
3:53 PM 71.1 °F 57.9 °F 63% 30.03 in 10.0 mi WSW 12.7 mph - N/A   Overcast
4:53 PM 69.1 °F 59.0 °F 70% 30.02 in 10.0 mi WSW 11.5 mph - N/A   Overcast
5:00 PM 68.0 °F 59.0 °F 73% 30.02 in 10.0 mi WSW 10.4 mph 16.1 mph N/A   Overcast
5:53 PM 68.0 °F 59.0 °F 73% 30.01 in 10.0 mi West 9.2 mph - N/A   Overcast
6:01 PM 66.9 °F 57.9 °F 73% 30.02 in 10.0 mi WSW 11.5 mph - N/A   Overcast
6:26 PM 66.9 °F 57.9 °F 73% 30.02 in 10.0 mi WSW 10.4 mph - N/A   Overcast
6:36 PM 66.9 °F 57.0 °F 70% 30.02 in 10.0 mi Variable 5.8 mph - N/A   Overcast
6:53 PM 66.9 °F 57.9 °F 73% 30.01 in 10.0 mi WSW 5.8 mph - N/A   Overcast
7:53 PM 66.0 °F 55.9 °F 70% 30.01 in 10.0 mi WSW 6.9 mph - N/A   Clear
8:53 PM 64.0 °F 55.9 °F 75% 30.01 in 10.0 mi WSW 4.6 mph - N/A   Clear
9:53 PM 63.0 °F 55.9 °F 78% 30.02 in 10.0 mi Calm Calm - N/A   Clear
10:53 PM 63.0 °F 57.0 °F 81% 30.02 in 10.0 mi Calm Calm - N/A   Clear